This is the latest recevied weather packets stored in our database for station/object N5ZP. If no packets are shown the sender has not sent any weather packets the latest 10 day(s).
| Time | Temp. | Humidity | Pressure | Rain* | Wind** | Luminosity | Snow |
|---|---|---|---|---|---|---|---|
| 1777391256 | 27.22° C | 84% | 1009.3 hPa | 0 mm | - | 332 W/m² | - |
| 1777390953 | 27.22° C | 84% | 1009.2 hPa | 0 mm | - | 258 W/m² | - |
| 1777390648 | 27.22° C | 83% | 1009.2 hPa | 0 mm | - | 121 W/m² | - |
| 1777390346 | 26.67° C | 83% | 1009.1 hPa | 0 mm | - | 156 W/m² | - |
| 1777390041 | 26.67° C | 83% | 1009.1 hPa | 0 mm | - | 147 W/m² | - |
| 1777389739 | 26.67° C | 83% | 1009.2 hPa | 0 mm | - | 96 W/m² | - |
| 1777389435 | 26.67° C | 82% | 1009 hPa | 0 mm | - | 107 W/m² | - |
| 1777389133 | 27.22° C | 82% | 1009.1 hPa | 0 mm | - | 153 W/m² | - |
| 1777388830 | 27.22° C | 81% | 1009.1 hPa | 0 mm | - | 162 W/m² | - |
| 1777388527 | 26.67° C | 83% | 1009.1 hPa | 0 mm | - | 171 W/m² | - |
| 1777388223 | 26.67° C | 83% | 1009.1 hPa | 0 mm | - | 187 W/m² | - |
| 1777387918 | 26.11° C | 85% | 1008.8 hPa | 0 mm | - | 288 W/m² | - |
| 1777387614 | 26.11° C | 86% | 1009 hPa | 0 mm | - | 184 W/m² | - |
| 1777387311 | 26.11° C | 86% | 1008.8 hPa | 0 mm | - | 124 W/m² | - |
| 1777387011 | 25.56° C | 86% | 1008.8 hPa | 0 mm | - | 163 W/m² | - |
| 1777386708 | 25.56° C | 86% | 1008.9 hPa | 0 mm | - | 120 W/m² | - |
| 1777386405 | 26.11° C | 85% | 1008.7 hPa | 0 mm | - | 145 W/m² | - |
| 1777386102 | 26.11° C | 85% | 1008.8 hPa | 0 mm | - | 182 W/m² | - |
| 1777385799 | 26.11° C | 85% | 1008.8 hPa | 0 mm | - | 163 W/m² | - |
| 1777385496 | 26.11° C | 86% | 1008.6 hPa | 0 mm | - | 204 W/m² | - |
| 1777385193 | 25.56° C | 86% | 1008.8 hPa | 0 mm | - | 224 W/m² | - |
| 1777384889 | 25.56° C | 87% | 1008.7 hPa | 0 mm | - | 159 W/m² | - |
| 1777384587 | 25.56° C | 87% | 1008.7 hPa | 0 mm | - | 115 W/m² | - |
| 1777384286 | 25° C | 88% | 1008.8 hPa | 0 mm | - | 107 W/m² | - |
| 1777383981 | 25° C | 88% | 1008.8 hPa | 0 mm | - | 103 W/m² | - |
* Rain latest hour (hover to see other rain measurements)
** Current wind speed in m/s (hover to see current wind gust speed)